DateTimeUTC,F1_A11,F1_S11,BsB_S11,BsG_S11,BsR_S11,BbsB_S11,BbsG_S11,BbsR_S11,BaB_A11,BaG_A11,BaR_A11,Tu_S11,T_S11,Uu_S11,U_S11,P_S11,T1_A11
2021-07-30T05:00:00Z,00040200,20000000,,,,,,,0000.19,0000.39,0000.62,17.9,25.1,01.6,01.0,0684.2,31.0
2021-07-30T05:01:00Z,00040200,20000000,,,,,,,0000.27,0000.20,-000.16,17.9,25.1,01.6,01.0,0684.2,31.0
2021-07-30T05:02:00Z,00040200,20000000,,,,,,,0000.16,0000.02,-000.03,17.9,25.1,01.6,01.0,0684.2,31.0
2021-07-30T05:03:00Z,00040200,60000000,,,,,,,0000.22,0000.38,0000.31,17.9,25.1,01.6,01.0,0684.1,31.0
2021-07-30T05:04:00Z,00040200,41000000,0002.23,0001.11,0000.99,0000.85,0000.51,0000.42,0000.71,0000.42,0000.51,18.3,25.0,01.8,01.2,0685.1,31.0
2021-07-30T05:05:00Z,00040200,01000000,0001.74,0001.39,0000.99,-000.16,0000.41,0000.61,0000.03,0000.82,0000.12,18.5,25.0,01.8,01.2,0685.2,31.1
2021-07-30T05:06:00Z,00040200,00000000,0002.06,0001.71,0000.84,-000.06,0000.33,0000.40,0000.60,-000.10,0000.24,18.5,25.0,01.9,01.3,0685.2,31.1
2021-07-30T05:07:00Z,00040200,00000000,0002.23,0001.75,0000.92,0000.19,0000.43,0000.41,0000.05,0000.43,0000.24,18.5,25.0,02.0,01.3,0685.1,31.1
2021-07-30T05:08:00Z,00040200,00000000,0002.52,0001.42,0000.87,0000.27,-000.04,0000.14,0000.72,0000.34,0000.45,18.5,25.0,02.0,01.4,0685.1,31.0
2021-07-30T05:09:00Z,00040200,01000000,0002.90,0001.74,0000.87,0000.41,0000.40,-000.06,0000.43,0000.49,0000.16,18.5,25.0,02.0,01.3,0685.1,31.0
2021-07-30T05:10:00Z,00040200,00000000,0002.45,0001.76,0000.90,0000.34,0000.22,0000.03,0000.29,0000.50,0000.34,18.4,24.9,02.1,01.4,0685.1,31.0
2021-07-30T05:11:00Z,00040200,00000000,0001.88,0001.82,0000.68,-000.33,0000.31,0000.39,0000.30,-000.11,0000.18,18.3,24.9,02.0,01.4,0685.1,31.0
2021-07-30T05:12:00Z,00040200,00000000,0002.28,0001.81,0000.90,0000.33,0000.36,0000.18,0000.59,0000.65,0000.42,18.3,24.9,02.0,01.3,0685.1,31.0
2021-07-30T05:13:00Z,00040200,00000000,0002.60,0001.50,0000.76,-000.37,0000.05,0000.10,0000.37,0000.27,0000.13,18.2,24.8,02.1,01.4,0685.1,31.0
2021-07-30T05:14:00Z,00040200,01000000,0002.04,0001.85,0000.62,0000.29,0000.15,0000.16,0000.58,0000.46,0000.35,18.2,24.8,02.1,01.4,0685.1,31.0
2021-07-30T05:15:00Z,00040200,00000000,0002.59,0001.47,0000.77,-000.20,0000.35,0000.27,0000.51,0000.27,0000.32,18.2,24.8,02.1,01.4,0685.1,31.0
2021-07-30T05:16:00Z,00040200,00000000,0002.62,0001.86,0000.88,-000.07,0000.40,0000.17,0000.23,0000.40,0000.05,18.2,24.8,02.2,01.5,0685.1,31.0
2021-07-30T05:17:00Z,00040200,01000000,0001.49,0001.53,0000.99,0000.05,0000.00,0000.06,0000.64,0000.94,0000.51,18.3,24.8,02.2,01.5,0685.0,31.0
2021-07-30T05:18:00Z,00040200,00000000,0002.63,0001.54,0000.87,-000.12,0000.15,-000.08,0000.09,-000.27,0000.10,18.4,24.9,02.2,01.5,0685.1,31.0
2021-07-30T05:19:00Z,00040200,00000000,0002.82,0001.65,0000.97,0000.51,0000.15,0000.35,0000.49,0000.57,0000.20,18.4,24.9,02.2,01.5,0685.1,31.1
2021-07-30T05:20:00Z,00040200,01000000,0002.49,0001.71,0000.94,0000.18,0000.11,-000.03,0000.26,0000.09,0000.30,18.5,24.9,02.1,01.4,0685.0,31.0
2021-07-30T05:21:00Z,00040200,00000000,0002.18,0001.38,0001.01,0000.28,0000.12,0000.08,0000.20,0000.38,0000.39,18.5,24.9,02.1,01.4,0685.0,31.1
2021-07-30T05:22:00Z,00040200,00000000,0002.50,0001.98,0000.95,-000.24,0000.11,0000.16,0000.22,0000.12,-000.29,18.5,24.9,02.1,01.4,0685.0,31.0
2021-07-30T05:23:00Z,00040200,00000000,0002.21,0001.53,0001.10,-000.03,0000.25,0000.45,0000.34,0000.23,0000.44,18.4,24.9,02.1,01.4,0685.0,31.0
2021-07-30T05:24:00Z,00040200,01000000,0002.79,0001.80,0001.17,-000.45,0000.33,0000.12,0000.62,0000.63,0000.08,18.4,24.8,02.1,01.4,0685.0,31.0
2021-07-30T05:25:00Z,00040200,00000000,0002.45,0001.61,0000.80,0000.05,0000.51,0000.22,0000.14,0000.21,0000.43,18.3,24.8,02.1,01.4,0685.0,31.0
2021-07-30T05:26:00Z,00040200,00000000,0002.53,0001.73,0000.85,0000.61,0000.13,0000.47,0000.17,0000.36,0000.20,18.3,24.8,02.1,01.4,0685.0,31.0
2021-07-30T05:27:00Z,00040200,00000000,0002.51,0001.69,0000.96,0000.31,0000.38,0000.16,0000.32,0000.30,0000.27,18.3,24.8,02.2,01.5,0685.0,31.0
2021-07-30T05:28:00Z,00040200,00000000,0001.94,0001.75,0000.91,0000.13,0000.26,0000.08,0000.84,0000.69,0000.44,18.2,24.8,02.1,01.4,0685.0,31.0
2021-07-30T05:29:00Z,00040200,00000000,0002.51,0001.48,0000.79,-000.05,0000.15,0000.22,0000.45,0000.29,0000.09,18.2,24.7,02.2,01.5,0685.0,31.0
2021-07-30T05:30:00Z,00040200,00000000,0001.84,0001.63,0001.25,0000.36,0000.12,0000.35,0000.46,0000.19,0000.41,18.2,24.7,02.1,01.4,0685.0,31.0
2021-07-30T05:31:00Z,00040200,00000000,0002.04,0001.86,0001.14,0000.56,0000.46,0000.08,0000.35,0000.26,0000.18,18.2,24.7,02.2,01.5,0685.0,31.0
2021-07-30T05:32:00Z,00040200,00000000,0002.30,0001.71,0001.00,-000.35,0000.56,0000.05,0000.41,0000.31,0000.27,18.3,24.7,02.2,01.5,0685.0,31.0
2021-07-30T05:33:00Z,00040200,00000000,0002.37,0001.59,0001.11,0000.34,0000.06,0000.18,0000.64,0000.59,0000.90,18.3,24.8,02.2,01.5,0685.0,31.0
2021-07-30T05:34:00Z,00040200,00000000,0002.34,0001.33,0000.88,0000.56,-000.03,0000.01,-000.35,0000.14,-000.34,18.4,24.8,02.3,01.6,0685.0,31.0
2021-07-30T05:35:00Z,00040200,00000000,0001.94,0002.07,0001.10,0000.25,-000.09,0000.54,0000.79,0000.14,0000.34,18.5,24.9,02.2,01.5,0685.0,31.1
2021-07-30T05:36:00Z,00040200,00000000,0002.23,0002.08,0000.90,0000.44,0000.25,0000.35,0000.33,0000.48,0000.36,18.5,24.9,02.3,01.5,0685.0,31.1
2021-07-30T05:37:00Z,00040200,00000000,0002.72,0001.58,0000.96,0000.08,0000.41,0000.13,0000.02,0000.47,0000.55,18.4,24.9,02.3,01.6,0685.0,31.0
2021-07-30T05:38:00Z,00040200,00000000,0001.74,0002.04,0001.18,-000.06,0000.41,0000.48,0000.76,0000.51,-000.21,18.4,24.8,02.3,01.6,0685.0,31.0
2021-07-30T05:39:00Z,00040200,00000000,0003.23,0002.41,0001.29,-000.27,0000.55,0000.24,0000.35,0000.49,0000.71,18.4,24.8,02.4,01.6,0685.0,31.0
2021-07-30T05:40:00Z,00040200,00000000,0002.35,0002.17,0001.14,0000.59,0000.11,0000.18,0000.50,0000.23,0000.07,18.3,24.8,02.3,01.5,0685.0,31.0
2021-07-30T05:41:00Z,00040200,00000000,0002.83,0001.90,0000.96,0000.61,0000.23,0000.25,0000.45,0000.41,0000.14,18.3,24.8,02.4,01.6,0685.0,31.0
2021-07-30T05:42:00Z,00040200,00000000,0002.35,0001.55,0001.11,0000.36,0000.31,0000.30,0000.42,-000.06,0000.46,18.2,24.8,02.4,01.6,0684.9,31.0
2021-07-30T05:43:00Z,00040200,00000000,0002.92,0002.11,0000.78,0000.30,0000.04,0000.11,0000.42,0000.46,0000.29,18.2,24.7,02.2,01.5,0684.9,31.0
2021-07-30T05:44:00Z,00040200,00000000,0002.78,0002.15,0001.09,0000.02,0000.34,0000.33,0000.52,0001.00,0000.21,18.2,24.7,02.4,01.6,0684.9,31.0
2021-07-30T05:45:00Z,00040200,00000000,0003.19,0001.98,0001.10,0000.27,0000.32,-000.06,0000.76,0000.53,0000.69,18.2,24.7,02.4,01.6,0684.9,31.0
2021-07-30T05:46:00Z,00040200,00000000,0002.41,0002.28,0001.03,0000.20,0000.43,0000.25,0000.43,0000.38,0000.27,18.2,24.7,02.5,01.7,0684.9,31.0
2021-07-30T05:47:00Z,00040200,00000000,0003.06,0001.84,0001.41,0000.23,0000.46,0000.25,0000.41,0000.13,0000.20,18.2,24.7,02.4,01.6,0684.9,31.0
2021-07-30T05:48:00Z,00040200,00000000,0003.53,0002.24,0001.17,0000.29,0000.32,0000.17,0000.38,0000.37,0000.32,18.3,24.7,02.3,01.6,0684.9,31.0
2021-07-30T05:49:00Z,00040200,00000000,0002.50,0001.85,0000.88,0000.52,0000.12,0000.34,0000.00,0000.25,0000.39,18.4,24.8,02.4,01.6,0684.9,31.0
2021-07-30T05:50:00Z,00040200,00000000,0002.56,0002.10,0001.11,0000.56,0000.50,0000.40,0001.09,0000.61,0000.28,18.4,24.8,02.3,01.6,0684.9,31.0
2021-07-30T05:51:00Z,00040200,00000000,0002.74,0001.94,0001.35,0000.33,0000.38,0000.56,0000.08,0000.14,-000.10,18.5,24.8,02.4,01.6,0684.9,31.0
2021-07-30T05:52:00Z,00040200,00000000,0002.93,0001.97,0001.35,0000.21,0000.46,0000.63,0000.47,0000.22,0000.52,18.4,24.8,02.4,01.6,0684.9,31.0
2021-07-30T05:53:00Z,00040200,00000000,0002.31,0002.01,0000.97,0000.29,0000.10,0000.40,0000.68,0001.12,0000.77,18.4,24.8,02.5,01.7,0684.9,31.0
2021-07-30T05:54:00Z,00040200,00000000,0003.51,0001.82,0001.31,0000.17,0000.54,0000.29,0000.05,0000.35,-000.01,18.4,24.7,02.4,01.6,0684.9,31.0
2021-07-30T05:55:00Z,00040200,00000000,0003.04,0001.82,0000.97,0000.31,0000.18,0000.16,0000.71,0000.25,0000.26,18.3,24.7,02.4,01.6,0684.9,31.0
2021-07-30T05:56:00Z,00040200,00000000,0002.97,0001.97,0001.15,0000.66,0000.16,0000.03,0000.51,0000.50,0000.37,18.3,24.7,02.5,01.7,0684.9,31.0
2021-07-30T05:57:00Z,00040200,40000000,,,,,,,-000.48,-000.17,-000.15,18.3,24.7,02.8,01.9,0684.8,31.0
2021-07-30T05:58:00Z,00040200,60000000,,,,,,,0000.31,-000.19,-000.01,17.9,24.8,02.3,01.5,0683.9,31.0
2021-07-30T05:59:00Z,00040200,20000000,,,,,,,-000.17,0000.11,0000.00,17.9,24.9,02.3,01.5,0683.9,31.0
